User: anonymous   Login
Location: Canyon Rim
(40.8777°N, 111.8641°W)
Time: 04:42:35
(UTC+00:00)
Language:

Max Valier Satellite - Orbit

View from above orbital plane
View from above orbital plane
View from above satellite
View from above satellite

Ground track
Ground track

The orbit data is extracted from the following two-line orbital elements,

1 42778U 17036P   21165.41417225  .00001369  00000-0  59962-4 0  9990
2 42778  97.2549 214.1248 0011891 178.2603 181.8677 15.23608207220821
Epoch (UTC): 14 June 2021 09:56:24
Eccentricity: 0.0011891
inclination: 97.2549°
perigee height: 487 km
apogee height: 503 km
right ascension of ascending node: 214.1248°
argument of perigee: 178.2603°
revolutions per day: 15.23608207
mean anomaly at epoch: 181.8677°
orbit number at epoch: 22082

The dashed part of the orbit path shows where the satellite is in the earth's shadow,  

DLR